KUIPER-00165

Last updated on Mon Oct 20 2025 00:02:06 GMT+0000 (Coordinated Universal Time)

1 65778U 25217S 25292.31684113 .00053309 00000+0 14741-2 0 9995 2 65778 51.8712 327.5000 0004142 145.6093 214.5163 15.36494401 3670
UTC large
Height (km)
Speed (km/s)
/
Latitude / Longitude
Inclination (degrees)
Orbital Period (minutes)
Azimuth
Elevation
Range (km)
Doppler Factor

Next 0 passes for location: London (51.5072 / 0.1276)

Sorry there are no passes over London.